Helicity
423 411 382 350 349 338 332 267 247 251 254 182 187 196 163 123 92 86 77 75 84 71 58 76 101 114 114 108 106 107 123 118 117 127 127 122 99 91
430 403 373 350 355 323 318 298 295 247 265 189 184 150 134 111 104 108 83 75 64 75 90 97 92 87 96 106 108 101 104 105 106 98 106 94 86 92
417 385 359 332 315 312 292 307 270 216 239 158 163 133 110 93 97 89 86 99 100 87 63 73 73 97 105 111 93 88 106 109 101 109 96 77 95 103
389 369 336 320 319 292 282 222 201 134 118 110 92 96 101 82 62 85 94 90 74 49 55 60 88 94 79 89 94 94 102 109 100 121 120 131 124 120
357 310 299 294 298 254 237 166 116 91 75 77 83 86 76 102 106 89 73 63 68 69 87 62 57 53 12 41 36 66 85 72 102 92 100 100 88 85
332 307 242 205 216 179 159 107 77 74 74 74 90 108 95 70 72 71 87 97 102 91 56 34 55 28 20 31 37 60 71 90 95 86 80 68 54 55
378 347 299 293 178 144 111 92 62 51 69 104 94 76 82 98 107 104 114 100 73 72 81 62 87 83 73 37 44 45 62 63 71 96 86 74 69 61
488 433 365 244 147 120 86 79 92 78 70 85 92 102 102 108 122 111 101 93 96 68 111 86 104 93 90 102 47 34 34 43 56 89 76 75 65 54
504 440 292 190 154 103 57 53 74 76 81 95 104 102 106 115 112 93 93 101 89 75 129 131 127 123 114 90 30 14 5 33 48 65 70 59 56 56
352 238 203 126 53 63 81 94 103 101 92 94 103 100 96 75 85 108 112 118 114 104 123 165 124 118 107 79 15 -7 1 18 42 48 43 39 46 46
236 156 91 84 80 84 95 103 104 109 88 77 67 46 53 68 89 136 117 134 131 127 118 157 137 114 97 92 69 29 51 28 19 31 32 35 44 49
122 67 62 91 82 80 96 115 120 120 129 121 99 100 102 109 164 220 199 168 140 135 116 150 122 118 117 106 99 76 97 57 22 27 25 27 34 83
77 85 89 90 78 81 89 107 100 118 108 101 95 110 133 178 211 196 181 163 159 152 109 131 150 138 169 166 145 121 90 96 87 75 48 24 32 43
86 90 86 80 79 78 91 88 96 98 105 104 131 158 183 171 149 122 125 136 134 114 94 98 158 149 144 148 124 111 99 107 121 124 110 74 42 37
105 104 93 85 77 92 83 90 99 103 111 143 159 153 145 146 136 142 129 122 109 117 123 119 152 145 151 143 156 133 103 107 82 118 117 110 115 123
115 122 106 83 79 96 98 90 97 106 132 132 144 145 146 149 139 133 119 108 145 121 115 110 122 137 155 152 145 135 119 119 123 139 120 119 112 127
117 107 107 106 95 83 89 97 117 133 139 150 154 144 143 135 116 105 112 140 120 139 124 121 128 144 151 149 158 160 141 131 119 145 107 80 83 87
126 117 102 93 95 97 106 120 131 130 155 171 154 149 139 118 111 108 123 137 138 129 132 125 122 118 111 120 79 123 112 129 111 88 93 74 64 76
102 90 91 117 115 112 122 135 137 143 158 161 159 153 135 124 97 119 114 118 114 126 130 137 157 153 132 124 81 53 93 102 88 75 87 97 89 87
101 101 120 132 132 133 139 147 164 181 172 149 134 126 123 118 112 112 103 108 100 119 119 127 151 164 129 122 97 68 46 98 97 96 100 84 98 50
98 108 120 131 137 145 159 171 168 159 147 144 143 133 114 125 107 100 99 60 66 110 105 105 116 44 100 99 74 79 76 52 55 85 101 58 16 48
125 134 140 146 152 161 163 154 159 148 130 130 125 113 116 121 97 100 93 92 92 104 112 103 109 127 125 111 77 87 120 81 50 15 35 -28 -61 36
135 138 145 152 158 156 161 159 158 142 135 124 118 108 99 99 97 90 90 94 96 99 93 85 90 115 113 123 56 58 65 49 37 30 75 41 46 49
Wind_Speed
28 27 27 26 27 28 29 32 39 49 47 43 47 44 48 54 60 58 63 64 68 69 67 69 70 70 72 72 71 69 73 77 78 77 80 82 85 85
28 26 25 25 25 27 30 33 38 43 50 45 49 50 53 58 57 62 66 68 66 67 67 70 73 74 73 72 71 72 76 77 77 80 81 83 83 85
27 25 26 25 27 29 31 36 39 42 49 51 52 55 56 57 60 63 65 66 67 67 68 70 72 72 74 73 74 74 77 79 80 79 80 81 84 89
28 28 29 28 31 32 34 37 40 42 49 57 55 55 58 57 61 61 64 63 65 65 69 68 70 70 71 72 74 76 78 81 82 84 84 86 88 91
27 25 29 30 32 33 36 37 42 46 47 51 55 54 55 59 62 61 61 62 65 65 68 68 68 71 71 79 80 82 80 80 80 84 87 89 90 88
17 21 22 28 28 30 36 38 41 46 49 49 50 57 61 62 62 65 68 64 67 63 66 65 69 71 75 78 79 81 79 76 81 83 86 85 83 84
17 22 23 27 30 34 39 41 42 45 47 50 54 58 62 63 66 61 66 66 67 67 68 69 72 71 75 76 76 78 77 81 80 81 80 82 83 84
29 30 29 32 35 38 38 38 40 44 48 51 55 61 62 64 62 63 64 72 76 64 67 77 71 73 74 74 75 80 78 77 79 73 77 81 83 83
32 35 35 35 35 36 37 40 42 42 44 49 56 57 60 58 60 63 65 70 73 73 74 79 71 76 73 72 77 76 75 73 73 68 77 81 85 85
30 28 33 33 30 34 39 40 40 44 46 45 46 50 53 55 60 61 64 68 70 69 70 82 78 82 75 74 76 73 70 67 68 70 75 83 85 86
28 29 26 25 27 33 37 41 45 43 42 40 44 48 53 59 61 62 69 73 77 75 70 76 75 86 83 75 64 64 66 69 69 69 77 84 84 83
28 26 22 26 30 34 39 43 45 44 45 48 53 54 57 57 58 58 63 73 78 78 66 81 80 81 82 69 61 71 67 66 69 70 75 79 79 75
23 23 26 27 33 36 38 37 40 45 50 53 53 55 56 55 56 61 63 68 73 72 70 73 74 75 71 79 71 72 70 69 73 70 69 75 73 73
20 24 26 27 35 35 33 39 44 48 50 52 54 56 59 60 63 65 65 63 62 66 65 65 70 73 76 78 83 71 71 71 66 67 69 71 72 74
22 24 26 28 31 33 37 41 43 49 50 52 55 58 60 59 61 62 62 63 64 62 63 61 64 71 69 73 74 73 77 72 66 65 73 74 76 76
22 22 25 29 33 33 38 40 41 44 49 56 56 57 55 61 63 62 68 68 69 69 64 62 59 64 66 64 64 70 70 68 68 70 73 77 74 73
17 22 26 30 34 36 38 39 42 44 51 52 55 59 61 62 63 64 64 66 69 72 73 67 66 63 60 59 65 63 66 67 67 71 76 82 80 78
21 25 29 31 33 38 43 45 46 48 49 51 57 60 62 64 64 64 63 68 69 69 71 70 70 71 67 59 52 60 65 69 73 70 72 76 87 85
26 29 31 30 35 39 41 45 49 50 49 54 57 55 59 61 64 65 68 69 65 65 65 63 67 71 77 78 68 58 72 71 71 71 71 74 80 90
26 28 31 34 38 41 44 46 47 50 53 56 57 56 57 62 63 64 66 65 67 63 62 63 65 69 70 76 81 72 55 63 63 67 73 81 75 60
24 29 35 38 41 42 43 45 48 52 53 51 51 54 57 59 61 63 62 61 61 62 68 68 63 62 65 66 71 68 60 57 55 62 66 85 83 74
30 34 37 38 40 42 44 46 48 50 51 51 52 53 54 54 58 57 56 57 59 61 63 62 62 64 66 67 69 64 56 63 66 64 35 62 62 62
34 35 38 39 40 41 43 44 45 47 47 48 50 52 53 53 51 52 52 52 55 60 61 64 63 62 64 62 63 61 55 64 73 81 70 55 56 56
Wind_Direction
258 267 278 289 299 304 307 304 305 307 312 317 321 331 333 333 332 334 332 331 329 330 331 331 334 337 337 336 336 337 336 334 333 332 330 328 325 324
259 264 277 288 298 306 310 313 314 312 310 319 321 324 327 329 331 331 329 328 330 331 332 332 332 333 335 336 336 334 333 332 331 330 329 327 325 323
259 265 274 284 293 300 308 312 314 315 312 316 320 322 325 326 328 329 329 330 331 332 331 331 333 334 334 334 333 332 332 331 329 329 327 325 325 323
257 265 273 284 290 298 306 310 313 315 315 313 317 321 323 325 324 328 330 332 332 333 333 334 334 335 334 334 333 332 330 329 328 328 328 326 324 322
259 271 278 283 290 297 304 310 312 315 317 317 317 321 323 325 325 328 330 331 333 335 335 334 334 333 332 332 331 331 330 329 329 327 326 326 324 323
269 278 283 288 299 303 306 312 315 314 316 318 320 319 320 322 325 326 327 333 334 336 334 334 333 332 332 331 330 330 329 329 330 328 327 327 325 324
269 282 295 301 305 307 308 312 315 316 317 318 319 318 319 323 326 331 330 332 332 332 331 332 332 332 332 331 331 330 330 328 329 330 330 330 327 325
273 283 292 297 302 307 315 317 317 316 316 318 319 318 321 325 328 330 331 329 329 335 333 329 332 330 332 333 332 330 330 329 329 330 331 332 330 326
272 279 288 297 306 310 312 314 316 320 321 321 320 323 324 330 331 331 330 329 328 330 329 328 332 331 333 333 331 330 329 329 330 330 331 331 329 327
275 280 290 300 307 309 311 316 321 322 323 327 329 330 330 330 329 329 330 329 329 332 334 328 332 330 334 334 331 331 331 331 331 330 329 330 329 328
276 286 296 305 309 312 315 317 319 327 332 332 332 331 330 330 331 331 329 329 329 331 336 332 334 331 332 333 336 338 337 333 331 330 329 330 329 329
280 290 301 305 307 312 315 320 323 329 331 330 329 330 332 333 335 339 336 331 331 331 339 333 332 335 333 336 338 336 336 334 331 331 331 332 332 332
284 297 304 306 305 312 319 329 329 331 328 328 329 330 333 336 337 337 337 334 331 330 334 334 332 332 331 331 334 334 334 334 332 331 332 333 334 333
296 302 307 310 309 319 330 328 329 329 329 329 330 331 332 333 334 336 336 336 335 332 333 332 329 331 330 329 329 334 333 332 332 332 334 334 334 333
304 311 313 315 322 327 326 329 331 330 330 331 330 331 332 334 336 336 336 336 335 335 336 334 332 332 332 329 329 332 332 333 333 335 334 335 334 333
314 322 326 324 323 329 329 331 334 334 333 331 332 334 337 336 336 336 335 335 333 334 337 336 333 334 331 331 331 331 333 332 334 334 334 333 334 334
332 328 325 326 326 328 331 333 335 336 334 335 335 335 335 336 335 336 335 334 333 334 336 338 338 336 333 330 329 332 333 333 334 334 334 332 332 333
327 325 324 326 328 329 330 333 334 334 336 336 335 334 334 334 335 335 336 335 334 335 336 338 338 337 337 337 335 333 334 334 335 336 335 335 328 328
324 324 326 330 332 333 334 334 333 335 337 336 335 334 335 334 336 335 335 336 336 336 337 340 340 340 337 335 339 341 333 336 337 336 337 336 331 323
327 330 333 335 335 335 335 336 337 338 337 335 334 333 334 335 335 335 337 337 336 337 338 340 340 340 338 337 335 336 341 339 340 338 337 330 331 282
335 335 335 335 336 337 339 338 337 336 336 335 335 335 335 336 336 336 337 337 338 339 338 339 342 342 341 341 340 340 342 346 345 342 342 325 305 295
336 335 337 338 338 338 337 336 336 336 335 335 335 335 336 338 337 338 338 339 339 339 339 342 344 345 345 344 342 343 345 344 343 344 354 289 288 289
335 335 335 336 337 337 336 336 335 335 336 335 336 336 337 337 339 339 339 340 341 340 342 342 345 347 346 348 347 348 349 346 341 326 303 292 289 288